QPF
0.02 0.02 0.04 0.05 0.05 0.05 0.05 0.03 0.02 0.02 0.02 0.02 0.02 0.01 0.01 0.01 0.01 0.01 0.01 0.01 0.01 0.01 0.01 0.02 0.02 0.02 0.02 0.02 0.03 0.03 0.03 0.04 0.04 0.03 0.02 0.01 0.01 0.00 0.00 0.01 0.00 0.00 0.01
0.03 0.03 0.04 0.04 0.04 0.04 0.05 0.03 0.03 0.02 0.02 0.02 0.02 0.01 0.01 0.01 0.01 0.01 0.01 0.01 0.01 0.01 0.01 0.01 0.01 0.01 0.02 0.03 0.03 0.02 0.03 0.04 0.05 0.04 0.02 0.02 0.01 0.01 0.01 0.01 0.00 0.00 0.01
0.03 0.03 0.03 0.03 0.03 0.03 0.03 0.03 0.02 0.02 0.02 0.02 0.02 0.01 0.02 0.01 0.01 0.01 0.01 0.01 0.00 0.01 0.01 0.01 0.01 0.02 0.02 0.02 0.02 0.02 0.02 0.03 0.03 0.03 0.02 0.02 0.02 0.02 0.01 0.01 0.00 0.00 0.00
0.02 0.03 0.03 0.02 0.02 0.02 0.02 0.02 0.03 0.03 0.02 0.02 0.02 0.01 0.01 0.02 0.02 0.01 0.01 0.01 0.01 0.01 0.01 0.01 0.01 0.01 0.01 0.01 0.01 0.02 0.02 0.03 0.03 0.04 0.03 0.03 0.03 0.02 0.01 0.01 0.01 0.01 0.01
0.03 0.04 0.04 0.03 0.02 0.01 0.01 0.01 0.02 0.02 0.02 0.02 0.02 0.01 0.02 0.02 0.03 0.02 0.02 0.02 0.02 0.02 0.01 0.01 0.01 0.02 0.02 0.02 0.01 0.02 0.01 0.02 0.03 0.03 0.03 0.02 0.01 0.02 0.02 0.02 0.02 0.02 0.01
0.03 0.04 0.04 0.04 0.03 0.02 0.01 0.02 0.02 0.02 0.02 0.02 0.02 0.02 0.02 0.03 0.04 0.02 0.01 0.02 0.03 0.03 0.03 0.02 0.02 0.02 0.03 0.02 0.02 0.03 0.02 0.02 0.02 0.02 0.02 0.01 0.01 0.01 0.01 0.01 0.02 0.02 0.02
0.05 0.05 0.05 0.05 0.03 0.03 0.02 0.02 0.02 0.03 0.03 0.02 0.03 0.02 0.02 0.02 0.03 0.03 0.02 0.01 0.02 0.03 0.03 0.03 0.03 0.03 0.03 0.02 0.02 0.03 0.02 0.02 0.02 0.02 0.01 0.01 0.02 0.01 0.01 0.01 0.01 0.01 0.02
0.05 0.06 0.07 0.07 0.05 0.04 0.03 0.02 0.02 0.02 0.01 0.01 0.01 0.01 0.01 0.02 0.02 0.01 0.01 0.01 0.01 0.02 0.02 0.02 0.04 0.04 0.03 0.02 0.02 0.02 0.02 0.02 0.02 0.02 0.01 0.02 0.02 0.01 0.01 0.01 0.01 0.01 0.01
0.05 0.06 0.07 0.08 0.07 0.06 0.05 0.03 0.02 0.01 0.01 0.01 0.01 0.01 0.01 0.01 0.02 0.01 0.01 0.01 0.01 0.01 0.01 0.01 0.02 0.03 0.03 0.02 0.02 0.02 0.02 0.03 0.03 0.03 0.02 0.03 0.03 0.02 0.01 0.01 0.01 0.01 0.02
0.03 0.04 0.05 0.06 0.07 0.06 0.06 0.04 0.02 0.01 0.01 0.01 0.01 0.00 0.00 0.01 0.01 0.01 0.01 0.01 0.00 0.01 0.01 0.02 0.03 0.03 0.02 0.02 0.01 0.01 0.01 0.02 0.02 0.02 0.03 0.03 0.03 0.03 0.02 0.01 0.02 0.02 0.03
0.02 0.03 0.04 0.04 0.05 0.05 0.06 0.05 0.02 0.01 0.01 0.01 0.01 0.00 0.01 0.01 0.01 0.01 0.01 0.01 0.01 0.01 0.01 0.02 0.03 0.04 0.03 0.02 0.02 0.01 0.01 0.01 0.02 0.02 0.02 0.02 0.03 0.03 0.03 0.02 0.02 0.03 0.04
0.02 0.02 0.03 0.04 0.04 0.05 0.06 0.05 0.02 0.01 0.01 0.01 0.00 0.00 0.00 0.01 0.01 0.01 0.01 0.02 0.02 0.01 0.01 0.01 0.02 0.03 0.03 0.02 0.02 0.02 0.02 0.02 0.02 0.02 0.02 0.03 0.03 0.03 0.02 0.02 0.02 0.02 0.03
0.01 0.01 0.02 0.02 0.02 0.03 0.05 0.05 0.03 0.02 0.01 0.01 0.01 0.00 0.00 0.00 0.00 0.00 0.01 0.01 0.01 0.01 0.01 0.02 0.02 0.03 0.02 0.02 0.02 0.02 0.02 0.02 0.02 0.02 0.01 0.02 0.03 0.03 0.03 0.03 0.03 0.02 0.02
0.01 0.01 0.02 0.03 0.02 0.02 0.03 0.04 0.03 0.03 0.02 0.01 0.01 0.00 0.00 0.01 0.01 0.01 0.00 0.00 0.00 0.00 0.01 0.01 0.01 0.02 0.02 0.02 0.02 0.02 0.01 0.01 0.01 0.02 0.02 0.01 0.01 0.02 0.03 0.03 0.04 0.03 0.02
0.00 0.00 0.01 0.03 0.02 0.02 0.03 0.03 0.04 0.03 0.03 0.02 0.01 0.01 0.01 0.01 0.02 0.02 0.01 0.01 0.01 0.01 0.01 0.01 0.01 0.01 0.01 0.01 0.01 0.01 0.01 0.01 0.01 0.02 0.03 0.03 0.02 0.01 0.01 0.02 0.02 0.03 0.02
0.00 0.00 0.01 0.02 0.03 0.03 0.02 0.01 0.02 0.03 0.04 0.05 0.05 0.03 0.02 0.02 0.02 0.02 0.02 0.02 0.01 0.02 0.02 0.01 0.01 0.02 0.02 0.02 0.01 0.01 0.01 0.01 0.01 0.02 0.03 0.04 0.04 0.04 0.03 0.02 0.02 0.02 0.02
0.01 0.01 0.02 0.02 0.04 0.03 0.02 0.01 0.01 0.02 0.02 0.01 0.02 0.02 0.02 0.02 0.02 0.02 0.02 0.02 0.02 0.02 0.01 0.01 0.02 0.03 0.02 0.02 0.02 0.01 0.01 0.01 0.01 0.01 0.02 0.03 0.04 0.04 0.04 0.03 0.03 0.02 0.02
0.02 0.02 0.02 0.03 0.03 0.04 0.02 0.01 0.01 0.01 0.01 0.01 0.01 0.01 0.01 0.01 0.01 0.02 0.02 0.03 0.03 0.02 0.02 0.02 0.02 0.02 0.03 0.03 0.03 0.03 0.02 0.02 0.02 0.02 0.02 0.02 0.04 0.04 0.04 0.04 0.03 0.02 0.02
0.02 0.03 0.03 0.04 0.03 0.04 0.03 0.01 0.01 0.01 0.01 0.01 0.01 0.01 0.02 0.01 0.01 0.02 0.02 0.02 0.01 0.01 0.02 0.03 0.03 0.03 0.02 0.02 0.02 0.03 0.03 0.03 0.03 0.02 0.02 0.02 0.02 0.03 0.04 0.04 0.04 0.03 0.03
0.02 0.05 0.05 0.05 0.03 0.03 0.02 0.01 0.01 0.01 0.01 0.01 0.01 0.01 0.01 0.01 0.02 0.02 0.02 0.03 0.03 0.02 0.03 0.03 0.03 0.02 0.02 0.03 0.03 0.03 0.03 0.03 0.04 0.03 0.03 0.02 0.03 0.03 0.03 0.03 0.04 0.04 0.04
0.03 0.05 0.05 0.05 0.04 0.03 0.03 0.01 0.01 0.01 0.01 0.01 0.02 0.02 0.02 0.02 0.02 0.02 0.02 0.02 0.02 0.02 0.02 0.02 0.02 0.03 0.03 0.03 0.04 0.04 0.05 0.04 0.04 0.03 0.03 0.03 0.03 0.03 0.04 0.04 0.04 0.04 0.04
0.04 0.05 0.05 0.05 0.04 0.02 0.03 0.02 0.01 0.01 0.01 0.02 0.02 0.02 0.02 0.01 0.01 0.01 0.01 0.01 0.01 0.01 0.01 0.02 0.01 0.01 0.01 0.02 0.02 0.02 0.02 0.03 0.03 0.03 0.03 0.03 0.03 0.03 0.03 0.03 0.03 0.03 0.03
0.03 0.04 0.05 0.04 0.03 0.02 0.02 0.01 0.01 0.01 0.01 0.01 0.02 0.01 0.01 0.01 0.01 0.01 0.01 0.01 0.01 0.01 0.01 0.01 0.02 0.02 0.02 0.02 0.02 0.02 0.02 0.02 0.02 0.03 0.03 0.03 0.04 0.04 0.04 0.04 0.03 0.02 0.02
0.02 0.03 0.04 0.04 0.02 0.01 0.01 0.01 0.01 0.01 0.01 0.01 0.02 0.02 0.02 0.01 0.01 0.01 0.01 0.01 0.01 0.00 0.00 0.01 0.01 0.01 0.01 0.01 0.02 0.02 0.02 0.03 0.03 0.03 0.03 0.03 0.03 0.03 0.03 0.03 0.03 0.02 0.02
0.01 0.02 0.03 0.04 0.03 0.01 0.01 0.01 0.01 0.01 0.01 0.01 0.01 0.02 0.02 0.02 0.02 0.01 0.01 0.01 0.01 0.01 0.01 0.01 0.01 0.01 0.01 0.01 0.01 0.01 0.01 0.02 0.02 0.02 0.03 0.03 0.03 0.02 0.03 0.03 0.03 0.03 0.03
0.01 0.02 0.03 0.04 0.03 0.01 0.01 0.01 0.01 0.00 0.00 0.01 0.01 0.01 0.01 0.01 0.01 0.01 0.01 0.01 0.01 0.01 0.01 0.01 0.01 0.01 0.01 0.01 0.01 0.01 0.02 0.01 0.01 0.02 0.02 0.02 0.02 0.02 0.02 0.02 0.02 0.03 0.04
MSLP
1016.58 1017.22 1017.82 1018.34 1018.78 1019.15 1019.45 1019.72 1019.98 1020.25 1020.55 1020.88 1021.22 1021.56 1021.89 1022.18 1022.44 1022.67 1022.89 1023.11 1023.34 1023.59 1023.85 1024.12 1024.36 1024.57 1024.71 1024.77 1024.76 1024.69 1024.58 1024.47 1024.37 1024.32 1024.32 1024.39 1024.50 1024.64 1024.78 1024.90 1024.97 1024.99 1024.94
1016.10 1016.77 1017.40 1017.96 1018.44 1018.85 1019.20 1019.51 1019.81 1020.12 1020.45 1020.81 1021.18 1021.55 1021.90 1022.23 1022.53 1022.79 1023.04 1023.27 1023.51 1023.76 1024.02 1024.27 1024.50 1024.70 1024.84 1024.92 1024.94 1024.91 1024.85 1024.77 1024.72 1024.69 1024.71 1024.77 1024.87 1024.97 1025.08 1025.15 1025.18 1025.15 1025.06
1015.57 1016.28 1016.94 1017.55 1018.08 1018.55 1018.95 1019.31 1019.66 1020.02 1020.38 1020.77 1021.17 1021.57 1021.96 1022.31 1022.63 1022.91 1023.17 1023.41 1023.64 1023.88 1024.11 1024.35 1024.57 1024.77 1024.92 1025.03 1025.10 1025.13 1025.13 1025.12 1025.12 1025.14 1025.19 1025.26 1025.33 1025.40 1025.45 1025.47 1025.44 1025.35 1025.22
1014.99 1015.73 1016.44 1017.10 1017.69 1018.21 1018.68 1019.10 1019.50 1019.91 1020.32 1020.75 1021.18 1021.61 1022.01 1022.39 1022.72 1023.02 1023.28 1023.52 1023.74 1023.96 1024.18 1024.40 1024.62 1024.82 1025.00 1025.15 1025.27 1025.37 1025.45 1025.51 1025.58 1025.65 1025.72 1025.79 1025.84 1025.88 1025.87 1025.83 1025.73 1025.59 1025.40
1014.36 1015.14 1015.89 1016.60 1017.25 1017.83 1018.35 1018.84 1019.30 1019.75 1020.22 1020.68 1021.15 1021.61 1022.04 1022.44 1022.79 1023.10 1023.37 1023.60 1023.82 1024.04 1024.26 1024.47 1024.70 1024.92 1025.13 1025.32 1025.50 1025.66 1025.80 1025.93 1026.05 1026.16 1026.25 1026.32 1026.35 1026.35 1026.30 1026.19 1026.04 1025.84 1025.62
1013.68 1014.49 1015.29 1016.04 1016.74 1017.37 1017.95 1018.50 1019.02 1019.52 1020.03 1020.54 1021.05 1021.54 1022.00 1022.42 1022.80 1023.13 1023.41 1023.67 1023.90 1024.13 1024.36 1024.59 1024.83 1025.08 1025.32 1025.56 1025.79 1026.00 1026.19 1026.36 1026.51 1026.64 1026.73 1026.79 1026.81 1026.77 1026.68 1026.53 1026.34 1026.11 1025.86
1012.96 1013.80 1014.62 1015.42 1016.16 1016.84 1017.47 1018.06 1018.63 1019.19 1019.74 1020.30 1020.84 1021.37 1021.86 1022.32 1022.73 1023.09 1023.41 1023.70 1023.97 1024.23 1024.49 1024.76 1025.04 1025.32 1025.60 1025.87 1026.13 1026.36 1026.58 1026.77 1026.92 1027.05 1027.13 1027.17 1027.17 1027.10 1026.99 1026.83 1026.62 1026.38 1026.13
1012.24 1013.08 1013.93 1014.74 1015.52 1016.23 1016.90 1017.54 1018.15 1018.75 1019.34 1019.93 1020.51 1021.07 1021.60 1022.10 1022.55 1022.96 1023.33 1023.68 1024.00 1024.32 1024.64 1024.96 1025.29 1025.61 1025.92 1026.21 1026.49 1026.73 1026.94 1027.12 1027.26 1027.36 1027.42 1027.44 1027.42 1027.35 1027.23 1027.07 1026.88 1026.66 1026.43
1011.54 1012.38 1013.23 1014.05 1014.84 1015.57 1016.27 1016.93 1017.57 1018.20 1018.83 1019.45 1020.06 1020.66 1021.23 1021.77 1022.27 1022.73 1023.17 1023.58 1023.98 1024.37 1024.76 1025.15 1025.53 1025.90 1026.24 1026.55 1026.83 1027.07 1027.26 1027.41 1027.51 1027.58 1027.62 1027.61 1027.58 1027.51 1027.40 1027.27 1027.11 1026.93 1026.74
1010.91 1011.73 1012.56 1013.37 1014.15 1014.90 1015.60 1016.28 1016.94 1017.59 1018.24 1018.89 1019.52 1020.15 1020.75 1021.33 1021.88 1022.41 1022.91 1023.40 1023.88 1024.35 1024.81 1025.27 1025.71 1026.13 1026.50 1026.83 1027.11 1027.33 1027.50 1027.62 1027.69 1027.72 1027.73 1027.71 1027.67 1027.61 1027.53 1027.43 1027.32 1027.19 1027.06
1010.40 1011.17 1011.95 1012.74 1013.50 1014.23 1014.93 1015.61 1016.28 1016.95 1017.61 1018.27 1018.93 1019.58 1020.21 1020.83 1021.43 1022.01 1022.57 1023.13 1023.68 1024.23 1024.77 1025.30 1025.80 1026.26 1026.67 1027.02 1027.30 1027.51 1027.66 1027.75 1027.80 1027.81 1027.79 1027.76 1027.73 1027.69 1027.64 1027.58 1027.52 1027.45 1027.36
1010.03 1010.73 1011.45 1012.18 1012.91 1013.61 1014.29 1014.97 1015.63 1016.30 1016.97 1017.64 1018.31 1018.98 1019.64 1020.29 1020.92 1021.55 1022.17 1022.79 1023.40 1024.02 1024.62 1025.20 1025.76 1026.26 1026.71 1027.08 1027.37 1027.59 1027.73 1027.81 1027.85 1027.85 1027.83 1027.80 1027.78 1027.75 1027.74 1027.72 1027.70 1027.68 1027.63
1009.82 1010.42 1011.07 1011.73 1012.40 1013.05 1013.71 1014.36 1015.02 1015.69 1016.36 1017.03 1017.72 1018.40 1019.08 1019.75 1020.41 1021.07 1021.73 1022.39 1023.05 1023.71 1024.36 1024.98 1025.58 1026.12 1026.60 1027.00 1027.31 1027.54 1027.70 1027.80 1027.84 1027.85 1027.84 1027.83 1027.82 1027.82 1027.83 1027.85 1027.86 1027.87 1027.86
1009.76 1010.26 1010.81 1011.39 1011.98 1012.58 1013.20 1013.82 1014.46 1015.11 1015.78 1016.46 1017.15 1017.85 1018.54 1019.23 1019.91 1020.59 1021.28 1021.96 1022.64 1023.33 1024.00 1024.65 1025.26 1025.83 1026.33 1026.76 1027.10 1027.37 1027.56 1027.68 1027.76 1027.80 1027.82 1027.83 1027.85 1027.88 1027.91 1027.95 1027.99 1028.02 1028.03
1009.84 1010.22 1010.66 1011.14 1011.65 1012.19 1012.75 1013.34 1013.95 1014.59 1015.26 1015.94 1016.63 1017.34 1018.04 1018.74 1019.44 1020.13 1020.82 1021.51 1022.19 1022.88 1023.55 1024.20 1024.82 1025.40 1025.92 1026.37 1026.74 1027.05 1027.28 1027.46 1027.58 1027.67 1027.73 1027.79 1027.84 1027.89 1027.95 1028.01 1028.07 1028.12 1028.15
1010.01 1010.29 1010.61 1010.99 1011.41 1011.88 1012.38 1012.92 1013.50 1014.12 1014.77 1015.45 1016.15 1016.86 1017.57 1018.28 1018.98 1019.67 1020.36 1021.04 1021.71 1022.37 1023.02 1023.65 1024.26 1024.82 1025.35 1025.81 1026.22 1026.57 1026.86 1027.09 1027.28 1027.43 1027.55 1027.66 1027.75 1027.84 1027.93 1028.02 1028.09 1028.16 1028.21
1010.25 1010.41 1010.63 1010.91 1011.25 1011.63 1012.07 1012.56 1013.10 1013.69 1014.32 1014.99 1015.69 1016.39 1017.11 1017.82 1018.51 1019.20 1019.87 1020.52 1021.17 1021.79 1022.41 1023.00 1023.58 1024.12 1024.64 1025.12 1025.55 1025.94 1026.28 1026.58 1026.84 1027.06 1027.25 1027.42 1027.57 1027.71 1027.84 1027.96 1028.06 1028.15 1028.23
1010.50 1010.57 1010.70 1010.89 1011.14 1011.45 1011.82 1012.25 1012.74 1013.29 1013.89 1014.54 1015.22 1015.91 1016.62 1017.32 1018.01 1018.68 1019.33 1019.95 1020.56 1021.14 1021.70 1022.26 1022.79 1023.31 1023.81 1024.29 1024.74 1025.17 1025.56 1025.93 1026.26 1026.56 1026.83 1027.07 1027.29 1027.49 1027.67 1027.84 1027.98 1028.11 1028.21
1010.74 1010.74 1010.80 1010.91 1011.08 1011.32 1011.62 1011.98 1012.41 1012.91 1013.47 1014.08 1014.73 1015.40 1016.08 1016.76 1017.43 1018.08 1018.70 1019.29 1019.86 1020.40 1020.92 1021.42 1021.91 1022.40 1022.89 1023.36 1023.83 1024.29 1024.74 1025.16 1025.57 1025.95 1026.30 1026.63 1026.93 1027.20 1027.44 1027.66 1027.86 1028.03 1028.17
1010.95 1010.90 1010.90 1010.96 1011.06 1011.23 1011.46 1011.75 1012.12 1012.55 1013.05 1013.60 1014.20 1014.83 1015.48 1016.13 1016.77 1017.39 1017.98 1018.54 1019.06 1019.57 1020.04 1020.51 1020.97 1021.43 1021.90 1022.38 1022.86 1023.35 1023.85 1024.34 1024.82 1025.28 1025.72 1026.13 1026.50 1026.85 1027.17 1027.45 1027.70 1027.92 1028.10
1011.11 1011.04 1011.01 1011.01 1011.06 1011.17 1011.33 1011.55 1011.84 1012.19 1012.61 1013.10 1013.63 1014.21 1014.80 1015.41 1016.01 1016.60 1017.16 1017.69 1018.18 1018.65 1019.10 1019.54 1019.98 1020.43 1020.89 1021.38 1021.88 1022.41 1022.95 1023.50 1024.05 1024.58 1025.10 1025.59 1026.05 1026.47 1026.86 1027.21 1027.52 1027.79 1028.01
1011.23 1011.15 1011.09 1011.06 1011.07 1011.11 1011.21 1011.35 1011.56 1011.83 1012.17 1012.57 1013.02 1013.53 1014.06 1014.61 1015.17 1015.72 1016.25 1016.75 1017.23 1017.68 1018.12 1018.55 1018.98 1019.43 1019.90 1020.41 1020.94 1021.50 1022.09 1022.69 1023.30 1023.90 1024.49 1025.06 1025.59 1026.08 1026.53 1026.94 1027.30 1027.61 1027.86
1011.29 1011.20 1011.13 1011.08 1011.05 1011.04 1011.07 1011.14 1011.27 1011.45 1011.69 1012.00 1012.37 1012.80 1013.26 1013.75 1014.26 1014.77 1015.27 1015.76 1016.23 1016.68 1017.12 1017.56 1018.01 1018.47 1018.97 1019.50 1020.07 1020.67 1021.30 1021.95 1022.61 1023.27 1023.91 1024.54 1025.13 1025.68 1026.18 1026.63 1027.03 1027.37 1027.65
1011.28 1011.19 1011.11 1011.04 1010.97 1010.92 1010.89 1010.89 1010.93 1011.03 1011.18 1011.40 1011.69 1012.03 1012.42 1012.85 1013.31 1013.79 1014.26 1014.74 1015.21 1015.67 1016.13 1016.59 1017.07 1017.56 1018.09 1018.66 1019.26 1019.90 1020.57 1021.26 1021.97 1022.67 1023.36 1024.02 1024.65 1025.24 1025.79 1026.27 1026.70 1027.06 1027.35
1011.19 1011.10 1011.01 1010.91 1010.81 1010.72 1010.64 1010.57 1010.54 1010.56 1010.63 1010.76 1010.97 1011.23 1011.55 1011.93 1012.34 1012.78 1013.24 1013.71 1014.19 1014.67 1015.15 1015.65 1016.16 1016.70 1017.27 1017.87 1018.52 1019.19 1019.90 1020.62 1021.35 1022.08 1022.80 1023.49 1024.15 1024.77 1025.33 1025.84 1026.29 1026.67 1026.97
1011.01 1010.91 1010.80 1010.68 1010.55 1010.42 1010.29 1010.17 1010.08 1010.03 1010.02 1010.08 1010.21 1010.41 1010.67 1010.99 1011.37 1011.78 1012.23 1012.69 1013.18 1013.68 1014.20 1014.73 1015.28 1015.86 1016.47 1017.12 1017.79 1018.50 1019.23 1019.98 1020.73 1021.48 1022.21 1022.92 1023.59 1024.22 1024.80 1025.33 1025.79 1026.18 1026.49
Thickness
5678 5677 5675 5674 5673 5672 5670 5669 5669 5668 5668 5667 5666 5666 5666 5665 5664 5663 5663 5664 5664 5665 5664 5664 5662 5662 5661 5661 5660 5660 5660 5659 5655 5655 5655 5654 5652 5651 5649 5649 5649 5649 5648
5673 5672 5671 5669 5668 5667 5666 5665 5664 5664 5663 5663 5662 5662 5661 5661 5660 5660 5659 5659 5660 5660 5660 5660 5659 5658 5657 5657 5656 5656 5656 5656 5654 5651 5651 5650 5649 5648 5647 5646 5646 5646 5646
5667 5666 5665 5664 5663 5662 5661 5660 5660 5660 5659 5658 5658 5657 5657 5656 5656 5656 5655 5656 5656 5656 5656 5656 5656 5655 5654 5654 5653 5653 5652 5652 5650 5649 5647 5646 5645 5644 5643 5643 5643 5642 5642
5660 5659 5659 5658 5658 5657 5656 5655 5655 5654 5653 5653 5653 5652 5651 5651 5651 5651 5650 5650 5651 5651 5651 5651 5652 5651 5651 5651 5650 5650 5649 5647 5646 5645 5644 5642 5641 5640 5640 5639 5639 5639 5638
5653 5652 5652 5652 5651 5650 5649 5649 5648 5647 5647 5647 5646 5646 5645 5645 5645 5645 5645 5645 5645 5645 5645 5646 5646 5645 5644 5644 5645 5645 5644 5643 5642 5641 5640 5639 5638 5636 5636 5636 5635 5635 5635
5647 5646 5646 5645 5644 5643 5643 5642 5641 5640 5639 5639 5639 5639 5639 5638 5636 5635 5637 5639 5640 5640 5640 5640 5640 5639 5637 5636 5636 5636 5637 5639 5639 5637 5636 5636 5635 5634 5633 5632 5632 5631 5630
5641 5640 5639 5639 5638 5637 5637 5636 5634 5633 5632 5632 5632 5632 5632 5631 5629 5628 5629 5632 5634 5635 5635 5635 5635 5634 5633 5634 5632 5630 5630 5630 5630 5633 5633 5633 5631 5631 5629 5628 5628 5627 5626
5634 5634 5633 5633 5632 5631 5631 5629 5628 5628 5627 5626 5626 5627 5626 5625 5622 5621 5622 5626 5628 5629 5629 5630 5630 5630 5628 5628 5628 5628 5628 5627 5625 5626 5627 5627 5626 5624 5624 5624 5623 5622 5622
5627 5627 5627 5627 5626 5625 5624 5624 5623 5622 5621 5621 5621 5620 5621 5620 5616 5615 5615 5619 5621 5622 5623 5624 5624 5624 5621 5620 5622 5623 5622 5620 5618 5617 5617 5617 5616 5615 5615 5615 5615 5615 5615
5621 5621 5622 5621 5621 5620 5620 5619 5618 5616 5615 5614 5614 5615 5615 5614 5611 5609 5608 5613 5615 5616 5617 5617 5615 5615 5613 5612 5615 5616 5615 5614 5613 5612 5610 5610 5610 5609 5607 5608 5608 5608 5609
5614 5614 5615 5615 5614 5614 5613 5613 5611 5610 5609 5609 5608 5608 5608 5607 5605 5603 5602 5605 5607 5608 5609 5610 5610 5606 5605 5605 5606 5609 5608 5606 5606 5606 5606 5606 5605 5604 5603 5602 5601 5600 5601
5607 5607 5608 5608 5608 5607 5606 5605 5605 5604 5602 5602 5602 5601 5601 5600 5598 5596 5595 5596 5597 5600 5601 5602 5602 5598 5597 5597 5597 5598 5597 5596 5598 5599 5599 5598 5598 5597 5596 5595 5593 5592 5591
5600 5600 5601 5602 5602 5601 5600 5599 5598 5596 5596 5595 5595 5595 5594 5593 5592 5590 5588 5588 5588 5590 5592 5592 5590 5589 5589 5590 5589 5588 5588 5589 5591 5591 5591 5591 5590 5589 5587 5585 5584 5583 5582
5594 5595 5595 5596 5595 5595 5593 5592 5591 5590 5589 5588 5588 5588 5587 5586 5585 5584 5582 5581 5580 5581 5582 5581 5580 5579 5580 5580 5580 5580 5581 5582 5582 5582 5582 5582 5580 5578 5577 5576 5574 5572 5571
5589 5589 5589 5588 5588 5587 5586 5584 5583 5583 5582 5581 5581 5582 5580 5579 5578 5576 5575 5575 5574 5574 5573 5573 5573 5573 5572 5573 5573 5573 5572 5572 5571 5570 5570 5570 5569 5568 5567 5566 5564 5562 5561
5583 5582 5581 5580 5580 5579 5578 5576 5573 5572 5572 5571 5571 5571 5572 5570 5568 5566 5565 5564 5564 5563 5563 5565 5565 5565 5564 5564 5563 5562 5562 5561 5561 5560 5559 5559 5558 5557 5556 5554 5553 5553 5552
5575 5575 5574 5573 5573 5572 5571 5570 5569 5565 5563 5562 5561 5560 5560 5559 5558 5557 5556 5554 5553 5552 5554 5556 5556 5555 5555 5554 5553 5552 5552 5551 5550 5550 5549 5548 5547 5546 5545 5544 5543 5543 5542
5568 5567 5565 5565 5565 5565 5565 5564 5563 5561 5560 5558 5555 5552 5551 5550 5549 5548 5546 5545 5544 5543 5546 5546 5546 5545 5544 5543 5542 5542 5541 5540 5539 5539 5539 5538 5537 5536 5535 5534 5533 5532 5532
5560 5560 5558 5558 5557 5557 5557 5556 5555 5554 5553 5551 5550 5547 5543 5541 5540 5538 5537 5539 5539 5538 5537 5537 5536 5535 5534 5533 5533 5532 5531 5530 5529 5528 5528 5527 5527 5526 5525 5524 5524 5522 5521
5552 5550 5549 5549 5549 5548 5548 5547 5546 5545 5544 5543 5542 5540 5536 5533 5533 5531 5530 5531 5531 5530 5528 5527 5526 5525 5523 5522 5521 5521 5520 5519 5518 5517 5517 5517 5516 5516 5515 5515 5514 5513 5512
5544 5543 5540 5541 5540 5539 5539 5538 5537 5536 5535 5534 5533 5531 5527 5526 5525 5524 5523 5522 5521 5521 5519 5518 5516 5514 5513 5512 5511 5510 5509 5508 5508 5507 5506 5505 5505 5505 5505 5504 5504 5503 5503
5536 5535 5534 5533 5532 5531 5529 5529 5527 5526 5525 5524 5522 5520 5515 5516 5516 5515 5514 5513 5511 5510 5509 5508 5507 5505 5504 5503 5501 5500 5499 5499 5498 5497 5496 5495 5494 5494 5493 5494 5494 5494 5493
5527 5526 5525 5524 5523 5521 5520 5520 5518 5516 5515 5513 5512 5510 5508 5507 5507 5506 5505 5504 5502 5501 5499 5498 5498 5496 5495 5494 5493 5492 5491 5490 5489 5487 5486 5485 5484 5484 5484 5484 5484 5484 5483
5518 5517 5516 5515 5514 5513 5512 5510 5508 5506 5505 5504 5502 5502 5501 5499 5498 5498 5496 5495 5493 5492 5490 5489 5489 5488 5487 5485 5484 5483 5482 5480 5479 5478 5476 5475 5475 5474 5474 5474 5474 5475 5475
5509 5508 5507 5506 5505 5505 5503 5501 5500 5498 5496 5495 5494 5493 5492 5491 5490 5489 5487 5486 5485 5484 5483 5481 5480 5479 5479 5477 5476 5475 5473 5471 5469 5468 5467 5466 5466 5465 5465 5465 5465 5466 5466
5500 5499 5498 5497 5497 5496 5494 5492 5491 5490 5488 5487 5486 5485 5484 5483 5482 5480 5479 5478 5477 5475 5474 5474 5473 5472 5470 5469 5468 5467 5464 5462 5460 5458 5457 5457 5457 5457 5457 5457 5457 5457 5457